Powrót do katalogu

DELTA 1 R/B(2)

AktywnyGTO
NORAD 15402·ROCKET BODY·🇺🇸 United States

Wystrzelony Nov 14, 1984 z Cape Canaveral Space Force Station

Loading…

TLE

Starzejące sięSource: Space-Track

Epoka: Sep 14, 2026, 14:44 UTC

1 15402U 84115C   26257.61434841  .00000045  00000-0  34910-3 0  9993
2 15402  22.9181 233.5958 7127961 174.8399 201.5290  2.38422116295594

Śledź DELTA 1 R/B(2) w czasie rzeczywistym z AllMySat

Download on the App Store